CZ-6A DEB, 56282

Orbit data source: Space-Track

CZ-6A DEB, 56282 is space debris in SSO originally from a launch on Fri, 11 Nov 2022 UTC launched from the Taiyaun Space Center, China (TSC). Debris objects in space refer to the collection of defunct objects orbiting the Earth. Examples of debris include non-operational satellites, rocket bodies, and fragments generated from explosions, collisions, or faulty payload assembly.

Loading next visibility...
Identifier
56282, 2022-151ADA
Orbit
SSO
Country
Flag of CNCN / PRC
Related business
Manufacturer
SAST
Mission
Spacecraft
Bus & Motor
Unknown
Mass
Unknown
Launch date (UTC)
2022-11-11 (4 years ago)
Launch vehicle
Unknown
Launch site
Taiyaun Space Center, China (TSC)
Object type
Payload
Rocket body
Debris
Shape & HBR
Unknown shape, 0.1 m
Radar Cross Section
Medium (>0.1 m² and <1 m²)

Expand to show TLE details & history
Last TLE update: 1 day ago

TLE from 1 day ago
0 CZ-6A DEB
1 56282U 22151ADA 26206.96757231  .00003475  00000-0  15752-2 0  9991
2 56282  98.8517 219.3871 0065734 243.2451 116.1990 14.21433061173081
Epoch: 2026-07-25T23:13Z
TLE epoch observation values (Epoch: 2026-07-25T23:13:18.247Z)
Latitude
-0°
Longitude
-72.61118°
Altitude
844.567 km
Speed
7.42 km/s
True Right ascension
14h 37m 32s
True Declination
0° 00' 00"
Sunlit
Object was in daylight at epoch
Visualization orbit readout
Latitude
Unknown
Longitude
Unknown
Altitude
Unknown
Speed
Unknown
Apparent Right ascension
Unknown
Apparent Declination
Unknown
Sunlit
N/A
Visualization observer readout
Local Sidereal Time
15:14:31
Azimuth
Unknown
Elevation
Unknown
Doppler factor
Unknown
Orbital elements
Apogee altitude
864.975 km
Perigee altitude
770.373 km
Semi-major axis
7,195.811 km
Eccentricity
0.00657
Inclination
98.8517°
RAAN
219.3871°
Arg. of periapsis
243.2451°
True anomaly
116.87241°
Mean anomaly
116.199°
Eccentric anomaly
116.53595°
Mean motion
3.55569 °/min
Orbital period
101.25 mins
BSTAR
0.0015752
Loading maneuver chart data...
Computing Atmospheric mass density...
Loading historical data...
Loading historical data...
Loading historical data...
Loading historical data...
Loading historical data...
Loading historical data...
Loading historical data...

Documentation

Showing up to 5 results
|